Location: Franzen
(48.6167°N, 15.3833°E)
Time: 07:50:52
(UTC+00:00)

Cosmos 1709 Rocket - Pass Details

Date: 03 August 2021
Orbit: 947 x 1002 km, 82.9° (Epoch: 18 September)

Event Time Altitude Azimuth Distance (km) Brightness Sun altitude
Exits shadow 20:51:28 - 93° (E) 2,899 6.1 -17.8°
Reaches altitude 10° 20:52:58 10° 80° (E) 2,774 6.2 -17.9°
Maximum altitude 20:53:44 10° 73° (ENE) 2,759 6.2 -18.0°
Drops below altitude 10° 20:54:32 10° 65° (ENE) 2,778 6.3 -18.0°
Sets 21:00:02 0° 27° (NNE) 3,740 7.5 -18.5°
